Year,Month,Day,Hour,Minute,Value (Times are PST for temperature in C)
2016,07,20,00,00,18.80
2016,07,20,00,01,18.80
2016,07,20,00,02,18.80
2016,07,20,00,03,18.80
2016,07,20,00,04,18.80
2016,07,20,00,05,18.80
2016,07,20,00,06,18.70
2016,07,20,00,07,18.70
2016,07,20,00,08,18.70
2016,07,20,00,09,18.70
2016,07,20,00,10,18.70
2016,07,20,00,11,18.70
2016,07,20,00,12,18.70
2016,07,20,00,13,18.70
2016,07,20,00,14,18.70
2016,07,20,00,15,18.70
2016,07,20,00,16,18.60
2016,07,20,00,17,18.60
2016,07,20,00,18,18.60
2016,07,20,00,19,18.60
2016,07,20,00,20,18.60
2016,07,20,00,21,18.50
2016,07,20,00,22,18.50
2016,07,20,00,23,18.50
2016,07,20,00,24,18.50
2016,07,20,00,25,18.50
2016,07,20,00,26,18.50
2016,07,20,00,27,18.50
2016,07,20,00,28,18.50
2016,07,20,00,29,18.50
2016,07,20,00,30,18.50
2016,07,20,00,31,18.50
2016,07,20,00,32,18.50
2016,07,20,00,33,18.50
2016,07,20,00,34,18.50
2016,07,20,00,35,18.50
2016,07,20,00,36,18.50
2016,07,20,00,37,18.50
2016,07,20,00,38,18.50
2016,07,20,00,39,18.40
2016,07,20,00,40,18.40
2016,07,20,00,41,18.40
2016,07,20,00,42,18.40
2016,07,20,00,43,18.30
2016,07,20,00,44,18.30
2016,07,20,00,45,18.30
2016,07,20,00,46,18.20
2016,07,20,00,47,18.20
2016,07,20,00,48,18.20
2016,07,20,00,49,18.20
2016,07,20,00,50,18.20
2016,07,20,00,51,18.20
2016,07,20,00,52,18.20
2016,07,20,00,53,18.20
2016,07,20,00,54,18.20
2016,07,20,00,55,18.20
2016,07,20,00,56,18.10
2016,07,20,00,57,18.10
2016,07,20,00,58,18.10
2016,07,20,00,59,18.10
2016,07,20,01,00,18.10
2016,07,20,01,01,18.10
2016,07,20,01,02,18.10
2016,07,20,01,03,18.10
2016,07,20,01,04,18.00
2016,07,20,01,05,18.00
2016,07,20,01,06,18.00
2016,07,20,01,07,17.90
2016,07,20,01,08,17.90
2016,07,20,01,09,17.80
2016,07,20,01,10,17.80
2016,07,20,01,11,17.80
2016,07,20,01,12,17.70
2016,07,20,01,13,17.70
2016,07,20,01,14,17.60
2016,07,20,01,15,17.60
2016,07,20,01,16,17.60
2016,07,20,01,17,17.50
2016,07,20,01,18,17.50
2016,07,20,01,19,17.50
2016,07,20,01,20,17.40
2016,07,20,01,21,17.40
2016,07,20,01,22,17.40
2016,07,20,01,23,17.40
2016,07,20,01,24,17.30
2016,07,20,01,25,17.30
2016,07,20,01,26,17.30
2016,07,20,01,27,17.30
2016,07,20,01,28,17.30
2016,07,20,01,29,17.30
2016,07,20,01,30,17.20
2016,07,20,01,31,17.20
2016,07,20,01,32,17.20
2016,07,20,01,33,17.20
2016,07,20,01,34,17.10
2016,07,20,01,35,17.10
2016,07,20,01,36,17.10
2016,07,20,01,37,17.10
2016,07,20,01,38,17.10
2016,07,20,01,39,17.00
2016,07,20,01,40,17.00
2016,07,20,01,41,17.00
2016,07,20,01,42,17.00
2016,07,20,01,43,16.90
2016,07,20,01,44,16.90
2016,07,20,01,45,16.90
2016,07,20,01,46,16.90
2016,07,20,01,47,16.90
2016,07,20,01,48,16.90
2016,07,20,01,49,16.80
2016,07,20,01,50,16.80
2016,07,20,01,51,16.80
2016,07,20,01,52,16.80
2016,07,20,01,53,16.70
2016,07,20,01,54,16.70
2016,07,20,01,55,16.70
2016,07,20,01,56,16.70
2016,07,20,01,57,16.60
2016,07,20,01,58,16.60
2016,07,20,01,59,16.60
2016,07,20,02,00,16.50
2016,07,20,02,01,16.50
2016,07,20,02,02,16.40
2016,07,20,02,03,16.40
2016,07,20,02,04,16.40
2016,07,20,02,05,16.40
2016,07,20,02,06,16.30
2016,07,20,02,07,16.30
2016,07,20,02,08,16.30
2016,07,20,02,09,16.30
2016,07,20,02,10,16.30
2016,07,20,02,11,16.30
2016,07,20,02,12,16.30
2016,07,20,02,13,16.30
2016,07,20,02,14,16.30
2016,07,20,02,15,16.30
2016,07,20,02,16,16.20
2016,07,20,02,17,16.30
2016,07,20,02,18,16.20
2016,07,20,02,19,16.30
2016,07,20,02,20,16.30
2016,07,20,02,21,16.30
2016,07,20,02,22,16.30
2016,07,20,02,23,16.30
2016,07,20,02,24,16.30
2016,07,20,02,25,16.30
2016,07,20,02,26,16.30
2016,07,20,02,27,16.30
2016,07,20,02,28,16.30
2016,07,20,02,29,16.30
2016,07,20,02,30,16.30
2016,07,20,02,31,16.40
2016,07,20,02,32,16.40
2016,07,20,02,33,16.40
2016,07,20,02,34,16.40
2016,07,20,02,35,16.50
2016,07,20,02,36,16.50
2016,07,20,02,37,16.50
2016,07,20,02,38,16.60
2016,07,20,02,39,16.60
2016,07,20,02,40,16.60
2016,07,20,02,41,16.60
2016,07,20,02,42,16.60
2016,07,20,02,43,16.60
2016,07,20,02,44,16.60
2016,07,20,02,45,16.70
2016,07,20,02,46,16.70
2016,07,20,02,47,16.70
2016,07,20,02,48,16.70
2016,07,20,02,49,16.70
2016,07,20,02,50,16.70
2016,07,20,02,51,16.70
2016,07,20,02,52,16.70
2016,07,20,02,53,16.70
2016,07,20,02,54,16.70
2016,07,20,02,55,16.70
2016,07,20,02,56,16.70
2016,07,20,02,57,16.70
2016,07,20,02,58,16.70
2016,07,20,02,59,16.70
2016,07,20,03,00,16.70
2016,07,20,03,01,16.70
2016,07,20,03,02,16.70
2016,07,20,03,03,16.70
2016,07,20,03,04,16.70
2016,07,20,03,05,16.70
2016,07,20,03,06,16.70
2016,07,20,03,07,16.70
2016,07,20,03,08,16.70
2016,07,20,03,09,16.70
2016,07,20,03,10,16.70
2016,07,20,03,11,16.70
2016,07,20,03,12,16.70
2016,07,20,03,13,16.70
2016,07,20,03,14,16.70
2016,07,20,03,15,16.70
2016,07,20,03,16,16.70
2016,07,20,03,17,16.60
2016,07,20,03,18,16.60
2016,07,20,03,19,16.60
2016,07,20,03,20,16.60
2016,07,20,03,21,16.50
2016,07,20,03,22,16.50
2016,07,20,03,23,16.50
2016,07,20,03,24,16.50
2016,07,20,03,25,16.50
2016,07,20,03,26,16.40
2016,07,20,03,27,16.40
2016,07,20,03,28,16.40
2016,07,20,03,29,16.40
2016,07,20,03,30,16.40
2016,07,20,03,31,16.40
2016,07,20,03,32,16.40
2016,07,20,03,33,16.40
2016,07,20,03,34,16.40
2016,07,20,03,35,16.40
2016,07,20,03,36,16.40
2016,07,20,03,37,16.30
2016,07,20,03,38,16.30
2016,07,20,03,39,16.30
2016,07,20,03,40,16.30
2016,07,20,03,41,16.30
2016,07,20,03,42,16.30
2016,07,20,03,43,16.30
2016,07,20,03,44,16.30
2016,07,20,03,45,16.20
2016,07,20,03,46,16.20
2016,07,20,03,47,16.20
2016,07,20,03,48,16.20
2016,07,20,03,49,16.20
2016,07,20,03,50,16.20
2016,07,20,03,51,16.20
2016,07,20,03,52,16.10
2016,07,20,03,53,16.10
2016,07,20,03,54,16.10
2016,07,20,03,55,16.10
2016,07,20,03,56,16.00
2016,07,20,03,57,16.00
2016,07,20,03,58,16.00
2016,07,20,03,59,15.90
2016,07,20,04,00,15.90
2016,07,20,04,01,15.90
2016,07,20,04,02,15.90
2016,07,20,04,03,15.90
2016,07,20,04,04,15.90
2016,07,20,04,05,15.90
2016,07,20,04,06,15.80
2016,07,20,04,07,15.80
2016,07,20,04,08,15.80
2016,07,20,04,09,15.80
2016,07,20,04,10,15.80
2016,07,20,04,11,15.70
2016,07,20,04,12,15.70
2016,07,20,04,13,15.70
2016,07,20,04,14,15.70
2016,07,20,04,15,15.70
2016,07,20,04,16,15.70
2016,07,20,04,17,15.60
2016,07,20,04,18,15.60
2016,07,20,04,19,15.60
2016,07,20,04,20,15.60
2016,07,20,04,21,15.60
2016,07,20,04,22,15.50
2016,07,20,04,23,15.50
2016,07,20,04,24,15.50
2016,07,20,04,25,15.50
2016,07,20,04,26,15.50
2016,07,20,04,27,15.50
2016,07,20,04,28,15.50
2016,07,20,04,29,15.50
2016,07,20,04,30,15.50
2016,07,20,04,31,15.50
2016,07,20,04,32,15.50
2016,07,20,04,33,15.50
2016,07,20,04,34,15.50
2016,07,20,04,35,15.50
2016,07,20,04,36,15.60
2016,07,20,04,37,15.60
2016,07,20,04,38,15.60
2016,07,20,04,39,15.60
2016,07,20,04,40,15.60
2016,07,20,04,41,15.60
2016,07,20,04,42,15.60
2016,07,20,04,43,15.60
2016,07,20,04,44,15.60
2016,07,20,04,45,15.60
2016,07,20,04,46,15.50
2016,07,20,04,47,15.50
2016,07,20,04,48,15.50
2016,07,20,04,49,15.50
2016,07,20,04,50,15.50
2016,07,20,04,51,15.50
2016,07,20,04,52,15.50
2016,07,20,04,53,15.50
2016,07,20,04,54,15.50
2016,07,20,04,55,15.50
2016,07,20,04,56,15.50
2016,07,20,04,57,15.60
2016,07,20,04,58,15.60
2016,07,20,04,59,15.50
2016,07,20,05,00,15.50
2016,07,20,05,01,15.50
2016,07,20,05,02,15.50
2016,07,20,05,03,15.50
2016,07,20,05,04,15.50
2016,07,20,05,05,15.50
2016,07,20,05,06,15.40
2016,07,20,05,07,15.40
2016,07,20,05,08,15.40
2016,07,20,05,09,15.40
2016,07,20,05,10,15.40
2016,07,20,05,11,15.40
2016,07,20,05,12,15.40
2016,07,20,05,13,15.40
2016,07,20,05,14,15.40
2016,07,20,05,15,15.40
2016,07,20,05,16,15.40
2016,07,20,05,17,15.40
2016,07,20,05,18,15.40
2016,07,20,05,19,15.40
2016,07,20,05,20,15.40
2016,07,20,05,21,15.40
2016,07,20,05,22,15.40
2016,07,20,05,23,15.40
2016,07,20,05,24,15.40
2016,07,20,05,25,15.40
2016,07,20,05,26,15.40
2016,07,20,05,27,15.40
2016,07,20,05,28,15.40
2016,07,20,05,29,15.40
2016,07,20,05,30,15.40
2016,07,20,05,31,15.40
2016,07,20,05,32,15.40
2016,07,20,05,33,15.40
2016,07,20,05,34,15.40
2016,07,20,05,35,15.40
2016,07,20,05,36,15.40
2016,07,20,05,37,15.40
2016,07,20,05,38,15.40
2016,07,20,05,39,15.40
2016,07,20,05,40,15.40
2016,07,20,05,41,15.40
2016,07,20,05,42,15.40
2016,07,20,05,43,15.40
2016,07,20,05,44,15.40
2016,07,20,05,45,15.40
2016,07,20,05,46,15.30
2016,07,20,05,47,15.30
2016,07,20,05,48,15.30
2016,07,20,05,49,15.30
2016,07,20,05,50,15.30
2016,07,20,05,51,15.30
2016,07,20,05,52,15.30
2016,07,20,05,53,15.20
2016,07,20,05,54,15.20
2016,07,20,05,55,15.20
2016,07,20,05,56,15.20
2016,07,20,05,57,15.20
2016,07,20,05,58,15.20
2016,07,20,05,59,15.20
2016,07,20,06,00,15.20
2016,07,20,06,01,15.20
2016,07,20,06,02,15.20
2016,07,20,06,03,15.20
2016,07,20,06,04,15.20
2016,07,20,06,05,15.20
2016,07,20,06,06,15.20
2016,07,20,06,07,15.20
2016,07,20,06,08,15.20
2016,07,20,06,09,15.20
2016,07,20,06,10,15.30
2016,07,20,06,11,15.30
2016,07,20,06,12,15.30
2016,07,20,06,13,15.30
2016,07,20,06,14,15.30
2016,07,20,06,15,15.30
2016,07,20,06,16,15.30
2016,07,20,06,17,15.30
2016,07,20,06,18,15.40
2016,07,20,06,19,15.40
2016,07,20,06,20,15.40
2016,07,20,06,21,15.40
2016,07,20,06,22,15.40
2016,07,20,06,23,15.40
2016,07,20,06,24,15.40
2016,07,20,06,25,15.40
2016,07,20,06,26,15.40
2016,07,20,06,27,15.40
2016,07,20,06,28,15.50
2016,07,20,06,29,15.50
2016,07,20,06,30,15.50
2016,07,20,06,31,15.50
2016,07,20,06,32,15.50
2016,07,20,06,33,15.50
2016,07,20,06,34,15.50
2016,07,20,06,35,15.60
2016,07,20,06,36,15.60
2016,07,20,06,37,15.60
2016,07,20,06,38,15.60
2016,07,20,06,39,15.60
2016,07,20,06,40,15.60
2016,07,20,06,41,15.60
2016,07,20,06,42,15.70
2016,07,20,06,43,15.70
2016,07,20,06,44,15.70
2016,07,20,06,45,15.70
2016,07,20,06,46,15.70
2016,07,20,06,47,15.70
2016,07,20,06,48,15.70
2016,07,20,06,49,15.80
2016,07,20,06,50,15.80
2016,07,20,06,51,15.80
2016,07,20,06,52,15.80
2016,07,20,06,53,15.80
2016,07,20,06,54,15.80
2016,07,20,06,55,15.80
2016,07,20,06,56,15.80
2016,07,20,06,57,15.80
2016,07,20,06,58,15.80
2016,07,20,06,59,15.80
2016,07,20,07,00,15.80
2016,07,20,07,01,15.90
2016,07,20,07,02,15.90
2016,07,20,07,03,15.90
2016,07,20,07,04,15.90
2016,07,20,07,05,15.90
2016,07,20,07,06,15.90
2016,07,20,07,07,15.90
2016,07,20,07,08,15.90
2016,07,20,07,09,15.90
2016,07,20,07,10,15.90
2016,07,20,07,11,16.00
2016,07,20,07,12,16.00
2016,07,20,07,13,16.00
2016,07,20,07,14,16.00
2016,07,20,07,15,16.00
2016,07,20,07,16,16.10
2016,07,20,07,17,16.10
2016,07,20,07,18,16.10
2016,07,20,07,19,16.10
2016,07,20,07,20,16.10
2016,07,20,07,21,16.10
2016,07,20,07,22,16.20
2016,07,20,07,23,16.20
2016,07,20,07,24,16.30
2016,07,20,07,25,16.30
2016,07,20,07,26,16.30
2016,07,20,07,27,16.40
2016,07,20,07,28,16.50
2016,07,20,07,29,16.50
2016,07,20,07,30,16.60
2016,07,20,07,31,16.70
2016,07,20,07,32,16.70
2016,07,20,07,33,16.80
2016,07,20,07,34,16.80
2016,07,20,07,35,16.80
2016,07,20,07,36,16.80
2016,07,20,07,37,16.80
2016,07,20,07,38,16.80
2016,07,20,07,39,16.90
2016,07,20,07,40,16.90
2016,07,20,07,41,16.90
2016,07,20,07,42,16.90
2016,07,20,07,43,17.00
2016,07,20,07,44,17.00
2016,07,20,07,45,17.10
2016,07,20,07,46,17.20
2016,07,20,07,47,17.20
2016,07,20,07,48,17.30
2016,07,20,07,49,17.30
2016,07,20,07,50,17.30
2016,07,20,07,51,17.30
2016,07,20,07,52,17.30
2016,07,20,07,53,17.30
2016,07,20,07,54,17.30
2016,07,20,07,55,17.40
2016,07,20,07,56,17.50
2016,07,20,07,57,17.50
2016,07,20,07,58,17.70
2016,07,20,07,59,18.00
2016,07,20,08,00,18.20
2016,07,20,08,01,18.30
2016,07,20,08,02,18.50
2016,07,20,08,03,18.70
2016,07,20,08,04,18.80
2016,07,20,08,05,19.00
2016,07,20,08,06,19.10
2016,07,20,08,07,19.20
2016,07,20,08,08,19.20
2016,07,20,08,09,19.30
2016,07,20,08,10,19.40
2016,07,20,08,11,19.50
2016,07,20,08,12,19.60
2016,07,20,08,13,19.60
2016,07,20,08,14,19.70
2016,07,20,08,15,19.70
2016,07,20,08,16,19.70
2016,07,20,08,17,19.60
2016,07,20,08,18,19.50
2016,07,20,08,19,19.40
2016,07,20,08,20,19.40
2016,07,20,08,21,19.40
2016,07,20,08,22,19.40
2016,07,20,08,23,19.50
2016,07,20,08,24,19.50
2016,07,20,08,25,19.50
2016,07,20,08,26,19.40
2016,07,20,08,27,19.50
2016,07,20,08,28,19.40
2016,07,20,08,29,19.30
2016,07,20,08,30,19.20
2016,07,20,08,31,19.10
2016,07,20,08,32,19.00
2016,07,20,08,33,19.00
2016,07,20,08,34,19.10
2016,07,20,08,35,19.10
2016,07,20,08,36,19.20
2016,07,20,08,37,19.30
2016,07,20,08,38,19.40
2016,07,20,08,39,19.40
2016,07,20,08,40,19.50
2016,07,20,08,41,19.50
2016,07,20,08,42,19.40
2016,07,20,08,43,19.30
2016,07,20,08,44,19.20
2016,07,20,08,45,19.10
2016,07,20,08,46,19.00
2016,07,20,08,47,18.90
2016,07,20,08,48,18.80
2016,07,20,08,49,18.80
2016,07,20,08,50,18.80
2016,07,20,08,51,18.90
2016,07,20,08,52,19.00
2016,07,20,08,53,19.10
2016,07,20,08,54,19.20
2016,07,20,08,55,19.30
2016,07,20,08,56,19.40
2016,07,20,08,57,19.40
2016,07,20,08,58,19.40
2016,07,20,08,59,19.40
2016,07,20,09,00,19.40
2016,07,20,09,01,19.40
2016,07,20,09,02,19.50
2016,07,20,09,03,19.50
2016,07,20,09,04,19.70
2016,07,20,09,05,19.80
2016,07,20,09,06,19.80
2016,07,20,09,07,19.70
2016,07,20,09,08,19.70
2016,07,20,09,09,19.60
2016,07,20,09,10,19.60
2016,07,20,09,11,19.70
2016,07,20,09,12,19.60
2016,07,20,09,13,19.70
2016,07,20,09,14,19.80
2016,07,20,09,15,20.00
2016,07,20,09,16,20.20
2016,07,20,09,17,20.10
2016,07,20,09,18,20.00
2016,07,20,09,19,20.00
2016,07,20,09,20,20.10
2016,07,20,09,21,20.20
2016,07,20,09,22,20.20
2016,07,20,09,23,20.20
2016,07,20,09,24,20.20
2016,07,20,09,25,20.20
2016,07,20,09,26,20.10
2016,07,20,09,27,20.00
2016,07,20,09,28,19.90
2016,07,20,09,29,19.90
2016,07,20,09,30,19.90
2016,07,20,09,31,19.90
2016,07,20,09,32,19.90
2016,07,20,09,33,20.00
2016,07,20,09,34,20.00
2016,07,20,09,35,20.00
2016,07,20,09,36,20.00
2016,07,20,09,37,19.90
2016,07,20,09,38,19.80
2016,07,20,09,39,19.70
2016,07,20,09,40,19.70
2016,07,20,09,41,19.60
2016,07,20,09,42,19.60
2016,07,20,09,43,19.40
2016,07,20,09,44,19.40
2016,07,20,09,45,19.40
2016,07,20,09,46,19.40
2016,07,20,09,47,19.40
2016,07,20,09,48,19.50
2016,07,20,09,49,19.50
2016,07,20,09,50,19.50
2016,07,20,09,51,19.50
2016,07,20,09,52,19.50
2016,07,20,09,53,19.70
2016,07,20,09,54,19.70
2016,07,20,09,55,19.80
2016,07,20,09,56,19.80
2016,07,20,09,57,19.90
2016,07,20,09,58,20.00
2016,07,20,09,59,20.10
2016,07,20,10,00,20.10
2016,07,20,10,01,20.00
2016,07,20,10,02,19.80
2016,07,20,10,03,19.80
2016,07,20,10,04,19.80
2016,07,20,10,05,19.90
2016,07,20,10,06,19.90
2016,07,20,10,07,20.10
2016,07,20,10,08,20.10
2016,07,20,10,09,20.20
2016,07,20,10,10,20.30
2016,07,20,10,11,20.30
2016,07,20,10,12,20.30
2016,07,20,10,13,20.40
2016,07,20,10,14,20.40
2016,07,20,10,15,20.30
2016,07,20,10,16,20.20
2016,07,20,10,17,20.10
2016,07,20,10,18,20.00
2016,07,20,10,19,20.10
2016,07,20,10,20,20.20
2016,07,20,10,21,20.20
2016,07,20,10,22,20.30
2016,07,20,10,23,20.40
2016,07,20,10,24,20.50
2016,07,20,10,25,20.60
2016,07,20,10,26,20.60
2016,07,20,10,27,20.50
2016,07,20,10,28,20.40
2016,07,20,10,29,20.20
2016,07,20,10,30,20.10
2016,07,20,10,31,20.00
2016,07,20,10,32,20.00
2016,07,20,10,33,20.00
2016,07,20,10,34,19.90
2016,07,20,10,35,20.00
2016,07,20,10,36,20.00
2016,07,20,10,37,20.10
2016,07,20,10,38,20.10
2016,07,20,10,39,20.00
2016,07,20,10,40,20.00
2016,07,20,10,41,20.00
2016,07,20,10,42,20.10
2016,07,20,10,43,20.10
2016,07,20,10,44,20.10
2016,07,20,10,45,20.10
2016,07,20,10,46,20.10
2016,07,20,10,47,20.10
2016,07,20,10,48,20.20
2016,07,20,10,49,20.30
2016,07,20,10,50,20.20
2016,07,20,10,51,20.10
2016,07,20,10,52,19.90
2016,07,20,10,53,19.80
2016,07,20,10,54,19.70
2016,07,20,10,55,19.70
2016,07,20,10,56,19.80
2016,07,20,10,57,19.80
2016,07,20,10,58,19.90
2016,07,20,10,59,20.10
2016,07,20,11,00,20.20
2016,07,20,11,01,20.30
2016,07,20,11,02,20.30
2016,07,20,11,03,20.40
2016,07,20,11,04,20.50
2016,07,20,11,05,20.50
2016,07,20,11,06,20.60
2016,07,20,11,07,20.50
2016,07,20,11,08,20.50
2016,07,20,11,09,20.30
2016,07,20,11,10,20.10
2016,07,20,11,11,20.10
2016,07,20,11,12,20.10
2016,07,20,11,13,20.20
2016,07,20,11,14,20.30
2016,07,20,11,15,20.30
2016,07,20,11,16,20.30
2016,07,20,11,17,20.30
2016,07,20,11,18,20.30
2016,07,20,11,19,20.30
2016,07,20,11,20,20.20
2016,07,20,11,21,20.20
2016,07,20,11,22,20.20
2016,07,20,11,23,20.20
2016,07,20,11,24,20.20
2016,07,20,11,25,20.20
2016,07,20,11,26,20.20
2016,07,20,11,27,20.40
2016,07,20,11,28,20.60
2016,07,20,11,29,20.80
2016,07,20,11,30,21.10
2016,07,20,11,31,21.30
2016,07,20,11,32,21.40
2016,07,20,11,33,21.50
2016,07,20,11,34,21.50
2016,07,20,11,35,21.40
2016,07,20,11,36,21.40
2016,07,20,11,37,21.40
2016,07,20,11,38,21.30
2016,07,20,11,39,21.20
2016,07,20,11,40,21.10
2016,07,20,11,41,21.10
2016,07,20,11,42,21.10
2016,07,20,11,43,21.10
2016,07,20,11,44,21.10
2016,07,20,11,45,21.20
2016,07,20,11,46,21.30
2016,07,20,11,47,21.30
2016,07,20,11,48,21.30
2016,07,20,11,49,21.50
2016,07,20,11,50,21.60
2016,07,20,11,51,21.60
2016,07,20,11,52,21.60
2016,07,20,11,53,21.60
2016,07,20,11,54,21.60
2016,07,20,11,55,21.80
2016,07,20,11,56,21.90
2016,07,20,11,57,22.00
2016,07,20,11,58,22.10
2016,07,20,11,59,22.00
2016,07,20,12,00,22.00
2016,07,20,12,01,22.10
2016,07,20,12,02,22.10
2016,07,20,12,03,22.00
2016,07,20,12,04,22.00
2016,07,20,12,05,22.10
2016,07,20,12,06,22.20
2016,07,20,12,07,22.40
2016,07,20,12,08,22.50
2016,07,20,12,09,22.60
2016,07,20,12,10,22.90
2016,07,20,12,11,23.00
2016,07,20,12,12,23.00
2016,07,20,12,13,22.90
2016,07,20,12,14,22.90
2016,07,20,12,15,22.80
2016,07,20,12,16,22.90
2016,07,20,12,17,23.00
2016,07,20,12,18,23.20
2016,07,20,12,19,23.40
2016,07,20,12,20,23.40
2016,07,20,12,21,23.30
2016,07,20,12,22,23.20
2016,07,20,12,23,23.10
2016,07,20,12,24,23.10
2016,07,20,12,25,23.10
2016,07,20,12,26,23.20
2016,07,20,12,27,23.20
2016,07,20,12,28,23.20
2016,07,20,12,29,23.10
2016,07,20,12,30,23.00
2016,07,20,12,31,23.00
2016,07,20,12,32,23.00
2016,07,20,12,33,23.00
2016,07,20,12,34,22.90
2016,07,20,12,35,22.80
2016,07,20,12,36,22.70
2016,07,20,12,37,22.70
2016,07,20,12,38,22.70
2016,07,20,12,39,22.70
2016,07,20,12,40,22.80
2016,07,20,12,41,22.80
2016,07,20,12,42,22.90
2016,07,20,12,43,23.00
2016,07,20,12,44,23.10
2016,07,20,12,45,23.20
2016,07,20,12,46,23.20
2016,07,20,12,47,23.10
2016,07,20,12,48,22.90
2016,07,20,12,49,22.90
2016,07,20,12,50,23.10
2016,07,20,12,51,23.30
2016,07,20,12,52,23.40
2016,07,20,12,53,23.40
2016,07,20,12,54,23.30
2016,07,20,12,55,23.20
2016,07,20,12,56,23.10
2016,07,20,12,57,23.10
2016,07,20,12,58,23.20
2016,07,20,12,59,23.20
2016,07,20,13,00,23.20
2016,07,20,13,01,23.00
2016,07,20,13,02,22.70
2016,07,20,13,03,22.70
2016,07,20,13,04,22.70
2016,07,20,13,05,22.70
2016,07,20,13,06,22.60
2016,07,20,13,07,22.60
2016,07,20,13,08,22.70
2016,07,20,13,09,22.90
2016,07,20,13,10,23.10
2016,07,20,13,11,23.20
2016,07,20,13,12,23.20
2016,07,20,13,13,23.10
2016,07,20,13,14,23.10
2016,07,20,13,15,23.10
2016,07,20,13,16,23.10
2016,07,20,13,17,23.10
2016,07,20,13,18,23.10
2016,07,20,13,19,23.00
2016,07,20,13,20,22.90
2016,07,20,13,21,22.90
2016,07,20,13,22,23.00
2016,07,20,13,23,23.00
2016,07,20,13,24,23.00
2016,07,20,13,25,23.00
2016,07,20,13,26,23.10
2016,07,20,13,27,23.10
2016,07,20,13,28,23.20
2016,07,20,13,29,23.20
2016,07,20,13,30,23.10
2016,07,20,13,31,23.00
2016,07,20,13,32,23.00
2016,07,20,13,33,23.10
2016,07,20,13,34,23.20
2016,07,20,13,35,23.30
2016,07,20,13,36,23.30
2016,07,20,13,37,23.20
2016,07,20,13,38,23.10
2016,07,20,13,39,23.10
2016,07,20,13,40,23.00
2016,07,20,13,41,22.90
2016,07,20,13,42,22.80
2016,07,20,13,43,22.80
2016,07,20,13,44,22.80
2016,07,20,13,45,23.00
2016,07,20,13,46,23.10
2016,07,20,13,47,23.30
2016,07,20,13,48,23.40
2016,07,20,13,49,23.40
2016,07,20,13,50,23.30
2016,07,20,13,51,23.30
2016,07,20,13,52,23.20
2016,07,20,13,53,23.20
2016,07,20,13,54,23.30
2016,07,20,13,55,23.40
2016,07,20,13,56,23.30
2016,07,20,13,57,23.30
2016,07,20,13,58,23.20
2016,07,20,13,59,23.10
2016,07,20,14,00,23.10
2016,07,20,14,01,23.10
2016,07,20,14,02,23.10
2016,07,20,14,03,23.10
2016,07,20,14,04,23.10
2016,07,20,14,05,23.10
2016,07,20,14,06,23.10
2016,07,20,14,07,23.10
2016,07,20,14,08,23.20
2016,07,20,14,09,23.30
2016,07,20,14,10,23.50
2016,07,20,14,11,23.50
2016,07,20,14,12,23.60
2016,07,20,14,13,23.70
2016,07,20,14,14,23.70
2016,07,20,14,15,23.70
2016,07,20,14,16,23.70
2016,07,20,14,17,23.60
2016,07,20,14,18,23.50
2016,07,20,14,19,23.30
2016,07,20,14,20,23.20
2016,07,20,14,21,23.10
2016,07,20,14,22,23.20
2016,07,20,14,23,23.40
2016,07,20,14,24,23.50
2016,07,20,14,25,23.60
2016,07,20,14,26,23.40
2016,07,20,14,27,23.40
2016,07,20,14,28,23.40
2016,07,20,14,29,23.60
2016,07,20,14,30,23.70
2016,07,20,14,31,23.80
2016,07,20,14,32,23.90
2016,07,20,14,33,24.00
2016,07,20,14,34,23.90
2016,07,20,14,35,23.80
2016,07,20,14,36,23.70
2016,07,20,14,37,23.60
2016,07,20,14,38,23.50
2016,07,20,14,39,23.30
2016,07,20,14,40,23.30
2016,07,20,14,41,23.20
2016,07,20,14,42,23.30
2016,07,20,14,43,23.30
2016,07,20,14,44,23.30
2016,07,20,14,45,23.20
2016,07,20,14,46,23.10
2016,07,20,14,47,23.10
2016,07,20,14,48,23.20
2016,07,20,14,49,23.20
2016,07,20,14,50,23.20
2016,07,20,14,51,23.20
2016,07,20,14,52,23.20
2016,07,20,14,53,23.30
2016,07,20,14,54,23.50
2016,07,20,14,55,23.40
2016,07,20,14,56,23.20
2016,07,20,14,57,23.10
2016,07,20,14,58,23.10
2016,07,20,14,59,23.20
2016,07,20,15,00,23.40
2016,07,20,15,01,23.40
2016,07,20,15,02,23.30
2016,07,20,15,03,23.30
2016,07,20,15,04,23.30
2016,07,20,15,05,23.30
2016,07,20,15,06,23.30
2016,07,20,15,07,23.30
2016,07,20,15,08,23.30
2016,07,20,15,09,23.30
2016,07,20,15,10,23.40
2016,07,20,15,11,23.50
2016,07,20,15,12,23.50
2016,07,20,15,13,23.60
2016,07,20,15,14,23.60
2016,07,20,15,15,23.70
2016,07,20,15,16,23.70
2016,07,20,15,17,23.60
2016,07,20,15,18,23.50
2016,07,20,15,19,23.50
2016,07,20,15,20,23.40
2016,07,20,15,21,23.40
2016,07,20,15,22,23.30
2016,07,20,15,23,23.40
2016,07,20,15,24,23.40
2016,07,20,15,25,23.40
2016,07,20,15,26,23.50
2016,07,20,15,27,23.50
2016,07,20,15,28,23.40
2016,07,20,15,29,23.50
2016,07,20,15,30,23.50
2016,07,20,15,31,23.60
2016,07,20,15,32,23.80
2016,07,20,15,33,23.90
2016,07,20,15,34,24.00
2016,07,20,15,35,23.90
2016,07,20,15,36,23.80
2016,07,20,15,37,23.70
2016,07,20,15,38,23.50
2016,07,20,15,39,23.30
2016,07,20,15,40,23.10
2016,07,20,15,41,23.10
2016,07,20,15,42,23.10
2016,07,20,15,43,23.10
2016,07,20,15,44,23.10
2016,07,20,15,45,23.10
2016,07,20,15,46,23.20
2016,07,20,15,47,23.20
2016,07,20,15,48,23.30
2016,07,20,15,49,23.40
2016,07,20,15,50,23.30
2016,07,20,15,51,23.20
2016,07,20,15,52,23.30
2016,07,20,15,53,23.40
2016,07,20,15,54,23.50
2016,07,20,15,55,23.70
2016,07,20,15,56,23.90
2016,07,20,15,57,24.10
2016,07,20,15,58,24.20
2016,07,20,15,59,24.10
2016,07,20,16,00,24.00
2016,07,20,16,01,23.90
2016,07,20,16,02,23.80
2016,07,20,16,03,23.70
2016,07,20,16,04,23.60
2016,07,20,16,05,23.70
2016,07,20,16,06,23.70
2016,07,20,16,07,23.70
2016,07,20,16,08,23.60
2016,07,20,16,09,23.60
2016,07,20,16,10,23.60
2016,07,20,16,11,23.70
2016,07,20,16,12,23.80
2016,07,20,16,13,23.80
2016,07,20,16,14,23.90
2016,07,20,16,15,23.90
2016,07,20,16,16,23.80
2016,07,20,16,17,23.80
2016,07,20,16,18,23.80
2016,07,20,16,19,23.70
2016,07,20,16,20,23.80
2016,07,20,16,21,23.80
2016,07,20,16,22,23.70
2016,07,20,16,23,23.70
2016,07,20,16,24,23.70
2016,07,20,16,25,23.80
2016,07,20,16,26,23.90
2016,07,20,16,27,24.00
2016,07,20,16,28,24.10
2016,07,20,16,29,24.10
2016,07,20,16,30,24.00
2016,07,20,16,31,24.00
2016,07,20,16,32,24.00
2016,07,20,16,33,24.00
2016,07,20,16,34,23.90
2016,07,20,16,35,23.80
2016,07,20,16,36,23.80
2016,07,20,16,37,23.80
2016,07,20,16,38,23.80
2016,07,20,16,39,23.80
2016,07,20,16,40,23.80
2016,07,20,16,41,23.80
2016,07,20,16,42,23.70
2016,07,20,16,43,23.60
2016,07,20,16,44,23.50
2016,07,20,16,45,23.50
2016,07,20,16,46,23.50
2016,07,20,16,47,23.50
2016,07,20,16,48,23.60
2016,07,20,16,49,23.60
2016,07,20,16,50,23.60
2016,07,20,16,51,23.60
2016,07,20,16,52,23.60
2016,07,20,16,53,23.60
2016,07,20,16,54,23.60
2016,07,20,16,55,23.60
2016,07,20,16,56,23.80
2016,07,20,16,57,23.80
2016,07,20,16,58,24.00
2016,07,20,16,59,24.00
2016,07,20,17,00,24.10
2016,07,20,17,01,24.00
2016,07,20,17,02,23.90
2016,07,20,17,03,23.80
2016,07,20,17,04,23.80
2016,07,20,17,05,23.80
2016,07,20,17,06,23.80
2016,07,20,17,07,23.90
2016,07,20,17,08,23.80
2016,07,20,17,09,23.90
2016,07,20,17,10,23.80
2016,07,20,17,11,23.80
2016,07,20,17,12,23.80
2016,07,20,17,13,23.80
2016,07,20,17,14,23.80
2016,07,20,17,15,23.80
2016,07,20,17,16,23.90
2016,07,20,17,17,23.90
2016,07,20,17,18,23.90
2016,07,20,17,19,23.80